Location: Dehesa de la Cepeda
(40.6574°N, 4.3013°W)
Time: 08:26:57
(UTC+00:00)

Vanguard 3 - Pass Details

Date: 02 August 2021
Orbit: 510 x 3260 km, 33.3° (Epoch: 18 September)

Event Time Altitude Azimuth Distance (km) Brightness Sun altitude
Rises 00:39:41 0° 282° (WNW) 7,194 12.1 -31.5°
Reaches altitude 10° 00:45:36 10° 273° (W) 6,198 11.6 -31.4°
Enters shadow 00:58:18 27° 233° (SW) 4,561 10.5 -31.0°
